Dewpoint
55 56 57 57 57 57 58 57 57 57 57 58 58 59 59 59 58 41 39 54 61 73 72 62 66 62 59 57 58 58 50 56 58 54 54 56 54 55 58 55 56 57 55 56 57
55 55 56 56 57 57 58 58 58 57 58 58 58 59 59 60 42 28 60 74 72 73 62 61 59 57 56 56 60 58 53 49 56 58 56 57 58 55 56 55 55 54 55 57 57
55 55 56 56 56 56 57 58 57 57 57 57 58 59 59 57 34 34 73 74 73 72 57 55 52 50 50 51 58 57 51 49 51 55 58 55 55 55 55 55 55 54 56 56 55
55 55 55 55 56 56 56 57 57 57 57 57 57 59 59 42 30 46 72 74 73 62 60 53 49 46 46 41 55 48 46 47 49 54 57 55 57 56 55 56 59 56 56 55 55
55 55 55 55 55 55 55 56 57 57 57 57 57 59 46 25 22 60 73 73 62 61 57 50 46 45 45 42 37 42 46 46 48 53 58 60 56 57 55 60 61 57 55 54 54
55 55 55 55 55 56 56 56 56 57 56 57 58 59 40 11 30 57 56 60 55 55 54 49 46 43 44 44 35 41 45 43 48 54 56 62 61 56 57 59 58 58 55 54 54
55 56 56 56 55 56 56 56 56 56 56 57 59 51 27 14 22 47 48 52 53 52 49 47 46 43 41 40 35 43 47 48 46 52 53 56 53 52 51 57 57 58 57 55 55
56 56 56 56 56 56 56 56 55 55 56 59 58 43 21 7 10 18 39 46 47 50 45 46 43 42 41 41 38 30 49 51 54 52 54 56 53 57 57 53 57 57 57 56 55
56 56 56 55 55 55 55 55 55 55 57 59 44 36 13 30 6 7 24 41 44 43 44 43 44 42 40 35 34 33 33 49 52 50 60 55 56 49 55 54 56 58 59 57 55
55 55 55 55 55 55 54 55 53 53 51 42 36 28 23 4 -2 -2 15 29 41 41 41 42 43 39 34 34 31 30 34 46 48 49 58 57 48 43 52 53 54 55 59 58 56
55 55 55 55 54 54 50 38 34 34 28 20 13 11 -4 8 3 -3 -6 18 37 35 38 40 37 34 33 33 33 31 37 42 46 48 52 55 56 52 58 53 55 55 57 58 57
55 54 54 54 53 53 48 36 26 24 22 21 16 9 12 4 7 3 -0 9 25 24 31 37 35 34 33 31 31 31 31 40 46 45 49 55 54 56 56 54 53 55 56 55 56
54 54 54 54 53 47 35 24 25 25 21 14 11 7 5 9 10 1 2 5 10 22 22 26 33 32 31 30 29 29 29 40 42 41 44 51 53 53 52 51 51 52 56 57 56
53 53 53 53 47 37 29 29 25 25 17 7 7 6 -1 0 0 3 -1 2 6 11 20 20 23 26 29 28 28 27 29 28 36 38 32 32 30 51 49 46 47 50 54 56 57
53 53 53 52 43 34 33 28 26 24 9 2 3 -0 -4 -5 -7 -6 -3 -0 5 6 13 18 19 21 26 27 28 27 28 28 28 30 30 30 28 37 44 47 46 47 52 54 57
52 52 52 47 46 37 32 29 27 16 5 2 4 3 -5 -6 -7 -9 -7 -2 3 7 8 11 15 18 22 27 27 28 27 29 32 30 26 28 28 36 38 44 45 47 50 53 56
51 51 50 42 36 34 31 28 17 9 6 2 3 4 3 -0 -3 -11 -5 -6 -6 3 8 6 7 12 18 22 26 26 26 26 30 28 24 26 26 34 39 38 38 47 48 51 56
51 50 48 40 35 31 32 25 18 9 4 1 4 4 1 1 1 -4 -2 -1 -6 -4 1 5 4 7 15 20 24 26 26 26 29 28 24 27 26 28 39 38 41 45 47 49 50
50 44 41 39 30 30 30 22 16 12 11 10 6 6 4 3 1 1 -0 -3 -1 -5 4 2 6 6 10 16 21 24 27 25 25 28 23 23 26 28 35 33 33 40 47 49 49
47 42 33 31 30 29 24 25 19 15 13 12 11 9 7 2 1 3 7 2 -1 -5 -5 3 6 5 6 11 17 20 26 23 26 28 28 25 33 31 39 35 34 33 35 41 41
46 38 33 31 29 28 22 18 16 14 13 13 13 10 8 7 5 5 6 8 4 1 -3 -9 -1 6 8 10 13 17 21 25 23 25 26 26 28 36 42 39 35 34 39 40 42
42 32 35 33 26 27 23 22 29 18 17 14 14 14 15 10 11 14 12 21 13 13 9 3 2 5 7 9 9 14 21 23 27 32 24 26 23 36 38 37 35 35 41 39 39
41 31 33 30 25 23 34 27 20 19 18 15 15 13 14 13 15 15 24 23 21 18 19 18 8 12 15 11 10 12 17 20 24 28 33 27 23 35 39 37 38 36 38 47 46
41 30 30 29 28 26 25 24 20 26 22 19 18 18 15 15 16 17 27 23 20 21 47 37 21 14 8 16 10 14 11 16 15 21 29 23 25 40 35 35 34 38 44 46 51
39 29 30 27 26 28 26 25 23 27 32 31 20 18 17 17 16 15 18 22 17 30 24 25 23 17 7 7 9 9 9 10 14 16 18 21 21 28 36 41 40 43 48 52 56
33 32 30 30 29 28 32 32 32 31 33 36 32 32 20 18 24 25 17 19 19 19 21 16 20 21 15 7 8 17 10 10 10 12 15 17 18 49 48 38 38 49 49 55 59
37 37 35 34 26 28 31 30 30 31 32 35 38 35 31 31 29 26 22 20 22 22 21 21 19 26 23 18 11 15 15 12 12 12 15 18 47 53 53 53 59 60 60 59 60
Lifted_Index
15 15 14 14 14 14 14 14 14 14 14 13 13 12 12 10 9 7 4 2 -0 -1 -2 -3 -3 -3 -2 -2 -2 -1 -1 -1 -1 -2 -2 -2 -2 -2 -2 -2 -2 -1 -0 1 1
15 15 15 14 14 14 14 14 14 14 14 14 13 12 12 10 8 6 3 1 -1 -1 -2 -2 -3 -2 -2 -2 -1 -1 -1 -1 -1 -2 -2 -2 -2 -2 -2 -2 -1 -1 0 1 1
15 15 15 15 15 14 14 14 14 14 14 14 13 13 12 10 7 4 2 0 -1 -2 -2 -2 -2 -1 -1 -2 -2 -1 -1 -1 -1 -1 -2 -2 -2 -2 -2 -1 -1 -0 0 1 1
15 15 15 15 15 15 15 15 15 15 14 14 13 13 11 9 6 3 1 -0 -1 -2 -2 -1 -1 -1 -1 -1 -2 -1 -1 -0 -1 -2 -2 -2 -3 -2 -2 -2 -1 -1 0 1 1
15 15 15 15 15 15 15 15 15 15 14 14 13 12 11 8 5 2 1 -0 -1 -1 -2 -1 -1 -1 -1 -1 -1 -1 -1 -0 -1 -2 -2 -2 -3 -2 -2 -2 -2 -1 0 1 1
15 15 15 15 15 15 15 15 15 15 14 14 13 12 10 8 6 3 1 1 0 -1 -1 -1 -1 -1 -0 -0 -1 -1 -1 -0 -1 -2 -2 -2 -2 -2 -2 -2 -2 -1 0 1 1
15 15 15 15 15 15 15 15 15 15 14 13 12 11 10 9 7 5 3 2 1 0 -0 -0 -0 0 0 -0 -0 -1 -1 -1 -1 -2 -2 -2 -2 -2 -2 -2 -2 -1 -1 0 0
14 14 15 15 15 15 15 15 15 15 14 12 11 11 10 10 9 8 5 3 2 1 1 0 1 1 1 1 0 -1 -1 -1 -1 -1 -1 -1 -1 -1 -2 -2 -2 -2 -1 -0 0
14 14 14 15 15 15 15 15 15 14 13 12 11 11 10 10 10 9 7 5 3 2 2 1 1 1 1 1 1 -1 -2 -2 -1 -1 -1 -1 -1 -1 -2 -2 -2 -2 -2 -1 -0
14 14 14 14 15 15 15 14 14 13 12 12 11 11 10 10 10 9 8 6 4 3 2 2 1 2 2 1 1 -0 -1 -2 -1 -1 -1 -1 -0 -1 -2 -3 -3 -2 -2 -2 -1
14 13 13 13 14 14 14 13 12 12 12 11 11 10 10 10 10 9 8 7 5 4 3 2 2 2 2 2 1 -0 -1 -1 -1 -1 -1 -1 -1 -1 -3 -3 -3 -3 -3 -2 -2
13 12 12 13 13 13 12 11 11 11 11 11 11 10 10 10 10 9 8 7 6 6 5 3 3 2 2 1 0 -0 -1 -1 -1 -1 -1 -1 -1 -2 -3 -4 -3 -3 -3 -2 -2
12 11 11 12 11 10 10 10 11 11 10 10 10 10 10 10 9 9 8 7 7 6 6 5 4 3 2 1 0 -0 -1 -1 -1 -1 -1 -2 -2 -2 -3 -3 -3 -3 -3 -2 -2
10 10 10 10 9 8 8 9 10 9 8 7 8 9 9 9 9 8 8 7 7 6 6 5 4 3 2 1 0 -0 -0 -1 -1 -1 -1 -1 -1 -2 -3 -2 -2 -2 -3 -3 -3
8 8 9 9 7 7 7 8 8 7 5 5 6 7 8 8 8 7 7 7 6 6 5 5 4 3 2 1 0 -0 -0 -0 -0 -1 -1 -0 -1 -1 -2 -2 -2 -2 -2 -3 -3
7 7 8 7 6 5 6 6 6 5 3 3 4 6 7 7 6 6 6 6 6 6 5 5 4 2 1 0 0 -0 -0 -0 -0 -0 -1 -1 -1 -1 -1 -1 -2 -2 -2 -2 -2
6 6 7 6 5 5 5 5 4 3 2 1 2 3 4 5 5 5 5 5 6 5 5 4 4 2 1 0 -0 -0 -0 -0 -1 -1 -1 -1 -1 -1 -0 -1 -1 -2 -2 -2 -3
5 5 5 5 5 4 4 4 3 2 1 0 0 1 2 3 3 3 3 4 5 5 4 3 3 2 1 0 -0 -0 -0 -0 -1 -1 -1 -1 -1 -0 -0 -0 -1 -2 -2 -2 -3
4 4 3 4 4 4 4 3 2 2 1 1 1 1 1 1 1 1 2 2 3 3 3 3 2 2 1 0 -0 -0 -0 -0 -0 -1 -1 -1 -1 -0 -0 0 -0 -1 -1 -2 -2
3 2 2 3 4 4 3 2 1 1 2 2 2 1 0 0 -0 -0 0 1 1 1 2 2 1 1 0 -0 -0 -0 -0 -0 -0 -0 -1 -1 -1 -0 0 0 0 -0 -1 -1 -1
1 1 1 2 3 2 2 1 1 1 2 3 2 2 1 -0 -0 -0 -0 0 0 0 1 1 1 -0 -0 -0 -0 -1 -1 -0 -0 -0 -0 -0 -0 -0 0 0 -0 -0 -0 -0 -0
-0 0 1 2 2 1 0 0 0 1 2 3 3 2 2 1 0 0 0 0 1 1 1 1 0 -0 -0 -0 -0 -1 -1 -0 -0 -0 -0 -0 -0 0 0 0 -0 -0 -0 0 1
-1 -1 0 1 1 0 -0 -0 0 1 2 2 2 2 2 1 1 1 1 1 1 1 1 1 1 0 0 -0 -0 -1 -0 -0 -0 -0 -0 -0 -0 0 0 0 -0 -0 -0 0 1
-1 -1 -0 0 0 0 0 0 0 0 1 1 1 1 1 1 1 1 1 1 1 1 1 1 1 1 1 0 -0 -1 -1 -0 -0 -0 -0 -0 0 0 0 0 -0 -1 -1 -1 -1
-0 -0 0 -0 0 0 0 0 -0 -0 -0 -0 0 1 1 1 1 1 1 1 1 1 1 1 1 1 1 1 0 -0 -1 -1 -1 -1 -1 -0 -1 -1 -1 -0 -0 -1 -2 -2 -3
1 1 1 0 0 1 1 0 0 -0 -1 -1 -0 -0 -0 -0 0 0 0 0 1 1 1 1 1 1 1 1 -0 -0 -0 -0 -0 -1 -0 -1 -1 -2 -3 -2 -2 -3 -4 -4 -4
2 1 0 0 1 1 1 1 1 0 -0 -1 -1 -1 -1 -0 0 0 0 0 0 0 1 1 0 0 1 0 -0 -0 -0 -0 -0 -0 -0 -1 -2 -4 -4 -4 -5 -5 -5 -4 -4